GFSNGP_2pvu_pres_231.txt.gz
Presure
315 288 286 277 283 278 278 289 331 277 268 276 241 227 223 233 228 199 194 203 199 173 213 230 220 174 94 192 181 184 199 192 195 153 185 144 187 164 185 179 162 81 119 85
354 301 289 280 271 270 270 279 290 287 268 218 260 255 220 215 219 210 234 185 187 200 223 176 172 223 210 197 193 193 202 203 194 190 193 201 152 192 155 204 94 142 95 88
377 308 295 276 270 258 269 281 283 298 276 253 263 234 229 229 213 206 201 216 180 204 194 194 198 207 191 196 212 202 199 203 197 190 162 172 187 171 197 169 177 190 168 93
356 345 298 274 263 265 269 275 274 273 281 269 255 244 264 266 218 208 192 196 208 235 220 198 201 211 214 191 183 197 204 186 196 191 209 189 201 195 202 201 201 206 200 155
373 364 296 280 264 289 263 269 256 255 274 257 261 267 260 262 213 210 212 219 207 205 202 230 191 211 202 214 232 205 211 212 197 182 187 199 193 201 209 150 204 202 198 198
391 387 290 295 283 282 265 257 253 256 263 276 295 265 267 260 245 220 239 258 222 212 210 231 227 228 250 217 242 233 211 208 182 202 240 187 202 204 193 217 213 200 166 202
378 392 370 346 298 291 274 259 252 255 261 265 262 269 269 275 260 246 225 228 233 226 247 218 222 214 221 221 250 210 219 210 225 238 212 263 239 190 173 202 185 242 208 206
364 370 369 334 366 335 285 272 261 261 268 259 257 258 257 258 270 287 235 255 239 227 224 229 228 239 262 230 232 226 225 213 219 221 234 234 233 237 244 220 281 249 245 217
357 362 358 367 357 285 278 305 274 270 266 260 261 267 260 261 279 273 279 246 227 231 240 225 225 228 226 229 234 225 221 214 248 234 216 217 221 223 220 246 253 196 238 250
313 322 357 358 359 355 339 354 313 290 276 269 266 263 263 257 266 262 268 266 277 287 284 254 247 241 246 255 256 243 235 242 265 232 233 234 240 250 247 260 218 277 246 223
349 346 342 330 324 349 364 359 358 348 347 348 309 324 290 265 267 272 269 265 262 263 261 267 270 267 275 280 284 289 284 287 281 269 267 262 267 256 264 268 241 264 250 246
374 364 354 353 352 355 327 339 340 346 355 359 353 348 293 288 294 298 317 302 271 263 276 268 278 289 296 269 267 263 275 274 265 261 261 259 258 255 259 248 255 253 230 230
286 308 357 395 418 381 367 358 356 310 339 328 355 353 347 365 368 409 413 406 407 292 298 290 289 294 446 316 285 283 263 275 273 262 270 262 266 269 263 274 266 261 260 250
291 280 284 306 348 404 440 438 374 367 367 367 314 307 311 371 327 336 378 378 381 406 419 415 409 404 406 304 271 276 282 276 277 284 280 289 291 303 309 284 270 268 273 272
290 294 294 286 285 305 318 359 396 434 424 396 363 360 362 366 369 364 358 349 371 389 377 372 374 375 373 374 382 385 390 391 393 398 401 408 414 412 417 306 295 294 290 285
290 285 291 292 285 290 281 290 303 313 323 333 339 344 351 351 353 353 358 343 360 365 350 351 357 339 345 347 351 354 356 356 358 358 359 362 372 387 397 418 428 429 462 504
287 288 289 291 293 297 284 287 284 282 285 287 296 311 326 339 334 328 348 340 363 346 333 338 328 325 329 328 331 327 327 325 325 330 334 380 397 420 509 385 388 393 404 437
269 282 289 290 285 293 292 299 286 283 281 288 289 284 289 307 327 343 331 330 367 346 333 324 319 318 310 320 316 309 314 316 327 336 339 374 442 406 415 474 358 417 378 397
260 270 281 289 285 283 288 290 290 293 289 285 284 283 287 288 299 331 337 337 360 354 336 321 306 308 307 306 307 299 303 303 338 329 322 363 430 392 381 377 386 365 372 401
264 263 271 283 285 279 284 282 289 287 287 288 291 288 284 284 284 298 322 351 332 369 344 318 309 306 300 304 295 297 302 294 320 307 302 343 384 456 375 370 370 371 374 422
272 268 269 275 285 284 284 282 283 287 290 291 287 292 301 309 293 288 299 339 350 374 350 324 309 304 299 294 298 296 293 292 304 308 310 327 339 461 432 392 445 444 434 437
269 271 269 269 277 282 279 287 287 283 287 289 295 293 289 302 315 317 290 311 351 322 367 332 314 303 294 288 294 286 284 288 281 299 309 320 312 338 375 372 365 354 350 343
279 269 272 269 272 281 278 282 288 292 287 291 286 294 301 306 310 328 319 291 329 349 317 352 317 307 294 288 290 284 284 280 275 297 283 289 306 296 301 317 325 324 318 314
292 275 275 273 271 274 281 278 285 290 301 296 292 291 295 302 327 342 340 320 296 351 346 377 340 314 296 291 284 283 280 278 276 285 277 302 307 293 290 291 292 291 293 296
293 278 276 279 274 272 278 277 282 282 291 301 300 294 303 301 321 347 349 330 316 362 347 329 332 327 312 288 296 280 279 277 274 266 276 276 299 282 291 279 278 278 281 287
288 281 264 284 275 276 275 281 278 277 281 289 301 301 299 306 321 353 353 334 344 357 345 327 322 365 323 306 282 291 275 278 276 270 273 266 266 261 265 287 281 273 277 279
291 285 271 261 281 273 279 276 282 283 278 287 293 302 306 310 315 347 354 369 403 511 498 471 398 318 362 317 300 285 287 267 278 262 270 267 254 266 269 272 274 275 269 267

GFSNGP_2pvu_pres_237.txt.gz
Presure
329 311 306 321 297 291 287 271 285 295 281 266 273 285 284 299 276 262 222 240 213 215 219 209 221 223 78 86 127 85 85 172 198 225 190 168 107 159 149 151 161 162 152 136
324 312 303 299 288 282 271 272 271 274 275 264 263 271 302 280 280 278 246 241 210 212 218 213 216 247 233 223 218 202 211 200 207 210 224 176 173 104 174 168 152 163 147 148
331 313 304 292 291 278 270 280 263 274 283 273 267 274 271 277 276 266 238 223 216 211 213 212 213 204 240 223 214 209 206 214 225 200 211 215 192 173 163 170 158 190 158 168
361 320 300 297 283 279 272 264 283 270 263 276 275 283 279 284 288 247 236 224 228 220 212 214 204 210 216 224 216 214 216 221 216 216 214 164 207 182 170 173 157 168 178 165
388 369 310 295 287 276 280 271 268 279 277 276 275 269 271 265 282 247 240 230 225 229 203 212 204 212 214 205 231 222 222 223 212 201 197 215 213 183 194 172 178 173 167 161
372 407 387 303 286 279 282 276 273 281 274 269 265 276 275 272 282 249 240 244 228 212 218 213 205 217 217 218 221 210 212 217 216 204 206 211 218 202 186 163 175 149 175 169
385 418 386 407 300 291 283 282 287 280 274 299 277 276 269 274 282 261 260 234 242 212 223 222 215 235 211 212 194 218 206 211 207 223 212 215 215 210 225 218 199 164 167 170
371 380 411 393 372 299 288 280 287 280 286 284 283 283 288 297 285 282 250 255 230 229 230 226 228 220 223 227 213 225 210 204 223 217 214 201 218 205 208 198 209 221 193 171
295 393 376 369 387 337 316 289 278 281 281 282 284 296 291 287 304 291 259 258 261 227 235 260 245 235 212 216 237 243 214 210 214 218 241 201 226 218 220 219 211 189 181 220
306 300 289 307 405 386 388 314 291 295 283 281 279 288 277 282 316 302 267 248 256 251 237 261 221 235 229 233 206 230 205 211 198 235 214 201 201 192 221 229 240 224 236 224
294 303 301 300 289 295 355 421 430 349 297 291 292 288 290 286 274 305 325 264 253 250 238 246 251 239 244 247 238 222 228 220 215 213 211 204 222 224 204 200 234 241 236 201
281 278 298 302 302 303 296 291 310 452 482 438 386 393 321 287 284 294 298 319 273 261 252 256 248 249 261 232 238 236 217 222 222 215 216 221 220 222 221 219 220 194 206 236
290 286 273 282 301 299 299 302 295 291 306 481 463 443 427 378 357 311 300 327 302 310 277 261 261 258 261 251 251 248 272 247 231 209 222 224 207 204 203 214 229 214 228 213
283 285 279 276 277 292 298 295 301 303 296 289 291 313 344 371 390 406 460 461 421 423 422 359 320 336 288 268 250 250 252 261 245 235 230 225 208 230 225 214 215 224 235 228
290 285 285 278 275 277 283 296 294 295 299 303 301 292 292 299 307 317 327 341 355 374 385 394 403 324 313 301 303 304 312 295 272 286 266 251 252 235 237 231 246 219 225 236
291 284 293 287 287 278 278 279 292 292 293 296 298 299 300 296 291 295 301 302 312 322 334 349 358 397 401 407 408 410 428 430 428 394 314 308 315 260 266 255 248 251 251 255
269 295 282 296 288 294 279 280 278 288 288 288 299 296 298 299 303 305 308 309 312 317 302 309 320 330 377 401 363 410 408 391 387 388 392 400 394 393 401 404 293 278 277 274
282 279 291 288 289 295 293 278 281 280 284 289 288 293 305 309 304 304 305 307 315 320 322 329 311 304 326 391 366 411 371 369 361 356 359 355 359 360 363 369 374 381 391 403
272 282 296 286 286 295 298 287 277 284 283 282 286 287 290 291 305 312 312 311 308 316 317 336 337 360 304 348 355 385 360 340 343 345 338 334 334 342 338 346 356 370 379 381
267 284 285 299 290 289 299 292 281 275 284 284 278 285 285 288 289 293 302 317 320 312 317 324 342 359 338 332 338 381 352 334 332 320 317 318 320 318 332 335 336 436 404 399
271 274 287 297 290 290 295 294 289 281 268 281 282 282 283 283 297 292 291 311 313 327 328 325 344 360 369 312 328 375 344 331 323 313 313 308 308 319 316 314 367 471 401 379
274 280 299 286 307 288 288 298 295 289 285 273 276 285 284 288 284 299 298 303 311 319 331 339 355 374 371 313 333 304 341 328 313 309 302 301 303 306 298 334 351 438 402 374
278 291 301 292 299 299 293 309 300 298 293 287 278 286 289 289 293 290 295 300 310 321 333 352 374 370 366 329 334 385 347 330 314 303 299 291 309 290 295 325 328 413 414 408
276 299 305 304 287 315 298 299 310 303 301 293 285 284 291 291 299 293 301 302 307 321 335 355 375 374 353 340 318 389 303 332 314 299 293 294 295 289 303 287 318 324 328 336
277 302 308 309 289 321 307 322 313 306 305 300 290 281 289 293 296 295 293 305 305 317 330 353 383 373 384 362 317 373 343 335 317 299 293 290 293 287 280 289 276 312 314 317
293 314 314 305 298 323 307 315 311 309 309 303 295 286 289 296 301 303 294 304 304 318 327 348 376 364 501 487 358 343 361 319 324 306 295 290 286 293 296 279 284 276 278 303
308 315 319 310 297 324 305 308 311 312 313 302 299 289 288 293 304 303 293 306 308 312 320 344 357 369 497 482 456 348 373 325 331 317 296 289 287 287 283 278 266 270 285 266

GFSNGP_2pvu_pres_240.txt.gz
Presure
338 323 304 301 293 292 286 281 295 282 279 269 277 273 272 258 253 263 248 282 247 226 225 214 228 229 76 104 77 87 79 77 67 76 83 81 81 182 143 102 174 183 152 147
332 319 304 291 304 292 278 272 287 286 277 263 264 282 267 257 251 263 245 242 254 224 231 238 223 216 226 229 79 86 79 83 88 198 79 182 195 177 182 109 175 179 167 152
337 316 305 295 298 291 284 278 277 284 260 271 284 262 265 270 277 250 258 273 222 220 207 221 215 200 205 217 220 218 220 225 203 236 192 196 178 185 180 175 186 109 171 153
349 319 309 306 301 295 283 279 275 286 285 267 274 280 266 257 259 267 271 266 250 216 214 204 211 212 218 226 219 215 228 220 227 210 204 222 201 197 182 181 184 174 166 168
369 317 304 301 286 294 284 295 272 285 282 268 276 268 271 291 262 267 271 268 256 237 230 213 213 205 217 186 223 183 193 222 237 226 233 198 212 189 182 186 180 164 169 174
405 345 322 307 307 293 292 287 288 290 275 282 287 275 271 274 286 272 264 251 244 239 245 234 210 199 205 210 193 213 216 216 241 230 215 191 216 209 170 195 179 168 173 173
399 425 418 322 301 300 288 293 296 297 294 290 281 301 276 277 285 279 257 247 243 240 239 203 226 220 212 215 227 203 204 208 243 227 216 209 207 219 216 178 192 184 175 159
321 311 404 427 375 311 304 293 292 291 295 294 299 295 284 293 283 274 277 265 252 237 256 231 210 214 240 214 187 207 179 236 250 210 228 225 212 226 222 175 166 182 183 172
288 308 306 298 410 422 322 294 292 276 293 293 293 289 303 297 313 319 295 286 248 248 239 239 229 218 223 227 212 214 223 222 239 218 237 225 217 221 219 220 196 202 182 173
300 283 289 308 304 282 366 412 314 294 284 295 295 290 302 304 295 320 291 310 262 247 250 238 239 236 227 235 229 227 224 234 216 248 219 217 242 185 201 224 235 226 184 187
288 298 291 278 288 301 307 296 289 325 343 380 467 296 296 301 300 299 301 313 308 251 254 257 240 243 232 223 227 237 233 249 222 230 221 223 228 212 236 235 244 211 215 221
289 297 300 299 291 282 292 303 303 310 305 299 323 372 425 424 296 296 296 300 284 279 249 247 241 254 248 239 236 224 236 223 240 224 214 226 235 236 242 233 223 221 219 229
286 284 298 298 299 298 288 284 299 302 302 309 310 296 308 338 373 402 417 330 318 317 322 262 248 251 249 260 241 239 240 240 225 223 238 239 214 241 240 236 238 252 250 233
279 282 284 300 285 297 299 293 287 287 297 302 302 306 311 306 303 315 330 348 364 378 392 406 415 277 260 257 239 251 242 227 244 247 246 237 240 229 222 223 235 243 233 232
263 280 286 286 303 287 293 302 293 287 285 293 296 301 306 306 308 309 305 305 312 325 337 349 362 373 386 309 272 262 261 267 253 242 230 253 245 231 216 228 255 218 238 219
264 271 283 291 287 299 293 299 302 289 285 290 286 297 295 301 310 318 314 311 313 316 321 317 323 335 347 355 368 314 279 270 266 269 260 253 243 253 252 256 232 225 234 245
251 259 286 288 294 289 300 296 305 299 289 284 290 288 289 295 299 299 303 312 322 329 317 315 323 331 330 347 337 350 362 373 353 278 278 289 257 263 251 249 252 240 236 244
247 250 267 300 300 297 297 296 295 304 299 291 278 282 289 289 290 293 299 306 308 313 320 333 341 331 341 342 361 365 344 344 401 382 443 401 287 273 275 276 274 272 266 258
247 243 276 304 305 309 291 306 290 293 304 302 292 288 278 284 291 290 297 291 303 311 309 325 323 337 351 348 352 363 399 331 365 421 411 398 385 381 384 380 375 383 347 342
245 257 267 286 315 310 308 289 309 297 294 306 303 296 293 288 285 296 293 301 300 305 305 314 321 329 343 358 369 365 383 336 352 402 381 366 361 366 355 351 352 351 360 371
243 241 269 272 322 316 312 294 305 313 292 313 308 303 299 296 288 290 300 300 306 306 312 309 319 331 353 377 399 395 371 343 361 388 358 348 336 331 331 329 329 340 354 347
239 248 259 280 331 322 317 303 300 318 306 322 313 308 306 300 292 286 296 301 306 303 308 310 320 337 362 391 396 400 367 346 324 364 343 334 322 316 317 317 323 334 333 443
244 246 260 279 301 330 323 312 300 324 322 320 314 313 314 304 295 288 295 302 308 305 314 309 322 343 376 375 379 403 360 337 387 351 331 324 315 310 310 305 318 319 362 407
246 247 268 282 310 336 326 320 302 329 322 310 313 316 317 310 301 292 291 298 312 303 314 315 322 350 386 410 362 408 348 319 385 348 326 316 306 305 295 311 305 307 341 336
246 252 263 276 314 338 332 320 306 299 323 315 318 319 318 307 302 300 296 296 315 305 317 320 322 339 373 396 500 489 356 308 375 351 324 314 302 295 300 294 300 300 298 326
246 249 259 272 296 342 333 328 310 299 330 320 314 320 318 313 307 303 300 301 314 307 307 319 318 329 363 370 495 482 396 350 374 349 323 313 299 293 294 292 299 303 285 315
246 249 262 272 283 342 334 327 316 306 305 324 319 316 320 316 315 309 304 303 312 307 306 318 316 327 337 361 379 483 458 348 375 339 330 313 300 293 291 285 292 290 289 284

GFSNGP_2pvu_pres_246.txt.gz
Presure
424 388 363 340 326 325 320 303 300 298 303 308 277 275 276 265 265 257 253 263 259 269 282 340 287 281 260 266 322 280 72 261 80 75 230 80 75 77 78 75 82 77 87 108
403 406 355 334 322 306 328 300 300 305 301 312 279 281 263 261 258 252 247 266 255 256 267 313 264 239 239 247 245 276 277 231 82 79 81 82 84 89 89 90 91 212 116 97
351 416 359 322 312 312 318 298 291 294 293 329 287 275 257 265 256 254 256 256 249 263 265 268 240 235 246 253 268 246 249 226 82 83 84 87 82 85 89 122 109 95 94 154
326 326 396 340 321 301 301 304 295 284 292 285 274 280 275 268 246 257 259 250 237 237 242 234 246 259 237 238 233 230 260 221 219 185 225 138 85 93 198 149 97 191 180 147
325 323 313 407 368 309 301 305 306 302 292 278 284 278 264 259 254 249 248 248 244 237 240 227 233 229 231 264 245 226 227 215 242 217 239 226 234 251 209 175 198 174 204 173
317 318 320 305 325 456 330 310 304 285 288 292 298 287 295 274 254 262 253 241 253 240 240 244 228 223 239 224 247 264 232 234 230 219 248 196 226 237 211 211 182 185 164 189
321 314 311 320 310 299 384 430 323 309 302 300 296 303 273 235 281 267 261 245 252 234 245 240 234 237 234 231 227 239 232 219 216 237 223 217 180 224 281 230 191 203 168 199
271 312 317 309 305 314 305 295 302 342 402 343 289 290 292 291 263 237 274 258 248 249 242 240 255 237 230 221 224 232 216 222 234 241 239 231 189 221 262 207 197 202 196 195
262 260 292 325 312 309 302 311 305 295 308 308 314 400 350 315 289 271 277 274 254 251 249 250 247 240 239 247 233 231 232 227 233 248 238 241 209 226 232 189 208 225 194 208
250 259 262 277 327 317 310 309 302 314 299 295 310 318 320 316 349 363 316 249 239 264 258 252 261 252 239 245 243 236 248 250 235 243 241 234 246 227 228 247 225 205 213 198
245 252 262 266 290 333 322 314 308 302 311 311 295 297 304 309 319 318 320 325 343 287 265 245 261 260 255 262 250 248 235 254 237 251 245 240 227 225 213 233 248 184 189 200
234 247 246 264 263 281 336 327 323 309 308 310 311 300 298 301 308 314 318 329 320 333 373 263 268 249 266 236 238 258 241 254 248 248 245 247 250 232 242 221 243 233 215 212
231 240 244 248 261 266 279 342 334 328 309 312 303 315 300 307 301 306 309 318 327 334 331 354 364 273 253 243 241 257 253 252 244 261 253 246 263 261 246 206 227 245 215 193
231 233 242 253 252 261 264 283 346 340 329 312 314 305 315 308 292 303 300 304 307 313 323 329 336 351 304 283 282 241 249 247 250 265 236 250 265 250 263 255 227 204 247 230
225 230 232 242 256 249 259 268 284 351 341 335 319 315 317 308 318 303 295 302 302 306 310 315 324 330 339 347 352 293 285 253 247 263 252 250 248 258 248 256 266 254 224 226
220 230 237 233 245 260 250 263 272 331 353 347 336 316 333 330 308 323 317 305 290 299 305 307 312 320 329 336 346 350 358 367 279 260 264 250 252 237 256 249 251 257 274 257
219 219 238 232 242 254 258 250 266 300 362 356 343 328 317 338 320 328 330 324 320 311 299 301 313 318 320 329 336 342 352 347 358 362 280 265 269 241 260 266 239 257 271 266
215 217 220 229 235 243 248 251 255 282 292 361 358 340 324 340 337 335 337 330 328 328 322 311 305 309 319 324 334 341 342 347 352 365 326 376 307 284 274 265 263 262 254 261
211 221 216 227 230 235 250 252 256 269 280 291 361 350 339 321 344 339 331 328 328 330 331 323 313 310 311 319 341 339 336 361 361 367 388 408 406 326 369 295 270 259 260 251
211 216 211 216 236 232 237 259 251 248 266 295 363 355 339 328 319 342 336 331 334 334 328 321 317 314 313 316 339 330 346 355 369 413 411 413 411 407 400 389 384 302 265 264
204 212 216 209 220 238 235 245 258 247 260 291 332 361 345 331 318 323 339 337 333 338 332 324 319 319 318 326 330 334 340 361 393 510 501 405 391 389 386 376 375 387 311 367
204 210 212 215 214 234 236 241 257 252 251 269 296 362 353 339 324 311 320 335 331 330 333 330 323 322 319 324 323 334 342 365 450 486 375 376 379 374 369 361 370 374 373 372
204 203 210 224 214 219 233 239 257 260 241 252 288 326 352 347 335 325 334 329 335 328 334 334 330 326 325 322 323 326 340 364 364 471 392 370 368 361 350 367 360 361 354 351
204 204 209 219 214 216 235 234 252 260 252 252 292 314 346 347 346 334 330 328 334 329 331 332 326 325 329 322 323 324 334 352 436 467 367 359 353 337 333 357 346 346 339 341
203 204 208 217 223 218 235 233 248 260 250 276 289 304 348 348 347 342 349 340 343 333 328 327 325 330 330 321 326 323 322 338 355 472 435 367 340 320 336 345 345 335 334 330
205 202 208 217 221 219 236 236 248 259 251 276 283 305 329 355 351 341 351 336 348 338 326 329 328 329 331 320 324 319 326 330 345 347 460 389 344 320 309 344 334 330 326 322
204 203 209 220 220 221 236 237 247 260 256 265 283 300 318 359 358 349 340 342 353 342 326 323 328 329 331 319 321 320 322 321 336 345 339 457 363 330 362 341 330 323 315 318

GFSNGP_2pvu_pres_252.txt.gz
Presure
206 247 372 375 362 350 341 335 363 340 320 324 319 276 284 294 289 280 278 272 262 263 280 270 281 272 288 289 302 325 332 361 345 374 358 331 227 233 94 148 77 78 120 179
279 296 303 319 366 344 336 330 318 362 354 324 326 280 271 299 239 279 272 269 269 266 270 270 271 281 277 285 297 307 337 359 341 334 241 233 231 83 81 181 205 82 151 130
274 300 291 292 303 361 349 332 323 316 374 364 324 313 284 286 297 280 282 270 272 259 260 277 270 276 279 282 295 302 325 330 376 281 220 219 222 170 76 77 79 80 82 85
270 271 291 281 281 287 351 347 338 318 331 323 427 359 329 319 303 275 264 277 269 258 268 271 265 272 274 283 290 294 294 344 273 288 214 225 190 161 93 77 81 83 83 84
259 261 277 273 274 278 285 352 354 343 330 321 327 315 326 343 361 309 258 276 275 269 271 275 275 266 279 277 287 293 291 290 263 236 205 212 222 224 221 148 151 84 86 182
251 253 258 270 274 262 273 289 294 361 349 339 323 312 328 320 348 334 302 247 264 275 274 282 270 275 270 289 283 287 271 274 248 228 217 225 208 225 202 201 198 233 103 95
248 243 246 257 263 275 265 276 279 287 357 360 347 333 317 324 331 314 320 337 338 260 261 271 279 281 251 271 283 281 288 273 237 228 215 210 202 240 227 219 221 214 181 187
239 238 232 248 248 260 269 259 268 279 289 370 362 353 345 327 312 332 317 329 329 341 273 274 277 273 280 256 273 283 276 273 238 248 249 187 223 202 215 209 202 205 214 204
227 232 229 230 240 248 250 264 275 268 271 290 334 370 361 347 329 319 328 326 323 330 345 281 271 268 276 269 293 252 298 267 271 263 237 215 209 215 229 248 211 190 215 204
216 221 224 227 226 229 240 246 261 275 268 273 285 302 379 371 351 328 329 331 330 323 331 338 354 245 263 285 257 276 284 268 268 260 245 223 225 199 226 231 220 204 201 206
211 211 215 218 221 228 230 238 246 258 276 258 279 284 301 380 368 352 329 345 330 332 327 319 333 344 251 280 282 255 267 285 278 300 251 246 224 235 232 216 224 233 227 198
206 212 209 213 212 221 224 231 236 250 253 266 279 279 283 306 384 368 353 332 360 343 325 332 324 328 337 346 287 282 246 263 283 278 272 275 267 235 224 219 234 227 241 212
203 201 206 203 212 215 220 225 230 234 244 241 273 279 282 283 313 389 372 357 335 368 354 327 343 335 329 336 346 301 283 280 272 281 285 281 300 313 295 262 203 231 240 227
203 209 207 201 210 205 215 216 225 228 229 242 251 269 286 281 288 331 372 373 357 342 358 363 355 350 347 335 327 339 351 266 279 269 276 263 259 281 285 294 267 253 240 207
206 196 204 205 205 211 211 215 213 223 222 234 238 250 272 285 280 287 331 365 371 358 341 333 358 355 354 357 354 345 334 343 353 278 270 275 282 285 265 261 265 231 239 226
197 202 201 208 203 207 214 212 214 214 223 226 229 238 250 276 282 277 289 338 374 373 361 346 334 358 353 354 359 357 356 354 338 346 336 285 275 264 281 289 311 256 240 271
198 192 200 201 202 206 208 205 212 214 213 223 227 235 236 252 281 283 295 318 355 372 370 359 350 355 356 352 356 360 357 355 354 351 345 347 357 299 287 272 284 300 239 283
195 202 199 199 203 203 207 215 204 213 219 212 222 227 237 238 257 283 278 303 336 362 375 367 365 359 349 350 349 353 355 350 349 348 351 355 361 365 380 385 334 296 295 299
193 197 196 200 206 205 206 214 219 214 213 220 222 226 228 236 248 264 280 294 322 359 382 379 367 359 359 351 352 347 352 359 361 362 360 367 367 382 408 526 527 529 513 422
192 196 195 201 205 203 212 217 215 214 213 224 217 223 230 236 239 252 273 286 308 353 388 389 372 364 365 355 354 348 348 348 349 361 357 359 367 377 493 481 476 470 463 445
196 195 198 199 204 205 212 213 212 215 214 229 227 213 241 228 237 248 264 283 296 337 391 400 382 370 367 359 356 351 346 346 348 357 348 350 359 380 447 393 399 408 392 406
198 195 200 204 202 208 207 211 204 220 223 232 226 239 231 227 235 243 262 278 289 333 395 412 390 377 373 359 358 350 340 344 345 349 344 343 352 368 421 391 369 385 390 393
202 201 202 201 207 211 206 213 219 225 226 238 236 249 231 230 235 239 255 277 282 317 412 425 405 385 375 363 356 349 338 339 346 346 336 338 348 363 473 374 375 369 370 372
200 200 202 205 212 212 213 217 224 225 233 239 246 249 243 227 234 240 251 273 280 307 436 430 413 393 376 368 357 347 337 335 342 342 333 336 345 355 380 424 367 358 353 353
202 204 208 209 212 214 219 220 225 229 232 233 243 255 236 226 234 242 251 276 283 299 446 432 414 396 376 369 356 347 336 333 333 341 334 331 343 338 364 473 395 351 340 352
207 211 215 216 216 223 218 224 227 218 229 233 238 234 226 219 237 243 250 272 281 291 447 429 413 397 380 369 353 346 336 331 333 333 335 330 327 337 342 354 470 378 337 327
212 213 214 217 221 217 229 228 225 217 226 234 246 229 225 233 239 249 253 276 281 291 445 425 409 397 380 367 355 345 337 331 330 334 333 335 328 326 331 355 346 441 369 338

GFSNGP_2pvu_pres_255.txt.gz
Presure
214 201 156 311 305 297 363 375 360 349 329 348 326 373 328 322 291 292 277 260 284 274 277 272 271 275 290 279 275 279 290 312 323 316 338 377 370 236 217 217 224 225 170 178
195 217 258 294 294 296 307 308 376 366 355 327 332 393 379 341 324 303 276 297 251 286 283 273 273 268 299 275 273 276 286 290 316 314 328 308 330 211 202 231 76 203 169 169
233 188 249 270 293 285 276 290 314 374 367 349 335 333 323 319 353 376 353 323 310 290 249 284 270 272 272 283 269 273 283 286 302 321 310 301 318 219 241 210 115 115 83 119
208 246 246 259 268 285 286 274 275 301 328 373 354 343 326 309 330 320 312 324 346 294 323 276 273 270 266 279 276 273 277 282 299 309 313 322 318 277 208 145 72 78 77 77
228 212 244 240 247 254 272 282 270 273 292 311 380 369 356 348 329 321 339 304 322 330 314 342 278 267 271 274 280 279 278 285 297 307 320 322 349 328 215 219 215 77 78 79
221 221 227 235 237 238 244 263 276 268 278 278 299 352 372 364 352 338 324 334 317 287 327 305 309 269 281 270 282 284 291 289 293 317 326 358 328 281 218 200 216 190 114 175
220 217 217 226 229 232 234 237 248 270 288 285 278 292 340 377 371 357 336 328 332 320 304 326 350 321 270 274 275 275 288 292 296 303 319 326 349 314 224 214 212 201 190 196
219 218 223 224 224 223 224 226 234 240 248 281 287 279 288 330 374 367 352 340 336 349 337 324 325 339 334 274 271 283 276 286 299 304 288 278 297 265 222 213 201 213 189 195
213 214 214 214 219 214 220 221 222 227 232 241 280 288 283 288 333 366 382 362 340 334 353 338 331 278 331 326 281 276 285 277 288 288 288 286 272 234 265 186 199 209 210 219
212 208 216 212 213 213 218 216 217 224 223 231 236 253 284 283 287 299 352 374 362 344 339 364 339 339 333 324 286 289 267 284 276 287 264 278 279 227 222 217 217 237 235 211
209 207 206 209 209 207 213 213 214 222 216 225 232 233 247 261 285 289 305 352 381 367 351 336 368 349 346 346 335 320 295 273 279 276 251 272 275 264 279 239 193 211 212 206
192 202 212 206 213 210 205 211 213 218 221 215 226 234 234 241 255 280 293 318 358 381 380 360 338 374 364 339 349 334 347 304 293 281 290 248 249 282 278 257 224 225 220 237
191 194 200 195 203 206 204 211 219 219 220 219 230 227 235 236 244 254 276 293 309 362 382 382 366 343 340 368 365 360 349 345 349 295 292 285 203 253 240 239 214 241 237 251
191 197 207 201 201 199 206 208 215 222 216 215 222 227 232 235 236 245 258 281 288 318 373 393 382 369 352 335 363 360 361 367 355 350 315 299 281 282 205 225 228 231 244 224
194 196 198 192 198 200 204 208 213 217 218 217 218 230 224 246 231 241 250 262 273 288 320 401 402 386 371 355 335 364 363 366 371 371 364 352 283 296 253 224 242 223 238 224
202 193 197 201 196 200 203 206 208 218 215 223 227 237 238 248 236 235 240 254 262 281 302 376 420 407 385 372 373 341 361 364 363 368 367 367 366 308 299 247 236 211 236 237
204 199 195 198 193 203 192 204 209 213 219 215 232 237 245 249 257 228 241 249 259 283 286 310 421 419 398 380 369 373 359 358 362 366 369 367 368 370 371 314 300 253 241 239
206 202 198 199 197 198 198 202 205 216 220 223 232 237 241 250 258 230 236 245 254 275 286 303 431 435 410 390 375 371 376 363 362 361 367 376 379 385 385 383 387 388 306 296
205 205 202 197 200 194 203 202 206 215 220 227 238 232 238 245 239 225 235 242 251 269 284 293 321 449 429 404 385 373 377 369 368 360 360 364 366 375 378 382 392 403 481 447
211 204 203 204 203 203 203 205 211 216 223 226 239 230 234 242 244 227 234 239 248 269 277 290 303 456 440 420 394 389 372 369 365 356 358 364 370 363 369 377 387 442 427 435
211 208 202 204 205 201 204 210 215 220 228 226 234 226 227 239 242 226 233 238 243 271 272 288 300 423 446 429 404 390 373 368 364 352 351 360 360 357 358 369 380 419 408 390
214 213 209 209 206 207 209 210 218 222 227 234 226 228 241 242 233 223 229 239 239 263 265 292 291 422 447 432 411 393 379 368 362 349 348 355 354 349 353 361 373 449 389 388
214 215 213 211 208 209 212 211 219 224 227 225 226 227 244 236 223 223 227 241 242 255 265 280 289 308 445 431 417 394 379 369 361 348 345 349 353 344 347 354 367 478 403 377
216 214 213 207 211 212 211 219 224 227 222 225 231 232 243 247 221 226 230 239 243 259 267 278 290 301 444 430 419 398 380 366 360 349 343 343 347 348 339 348 348 361 474 380
216 215 214 215 214 213 222 225 223 220 223 226 226 239 245 235 219 227 234 237 244 259 267 277 287 298 444 429 417 401 380 367 356 349 341 341 343 347 342 337 343 367 356 440
220 219 216 216 221 225 225 222 218 221 223 227 229 240 245 226 220 229 236 237 252 259 267 273 282 295 396 428 414 401 386 374 354 349 341 337 340 341 343 337 334 339 360 362
222 220 223 224 225 223 224 217 217 218 228 230 235 247 236 221 218 228 239 238 258 260 266 272 280 293 310 428 411 398 386 375 364 350 343 336 337 339 342 342 336 331 349 349

GFSNGP_2pvu_pres_261.txt.gz
Presure
225 214 213 206 226 199 227 228 221 217 209 207 249 253 254 286 299 345 379 396 372 349 338 324 347 309 320 355 273 301 283 275 278 275 268 294 316 318 360 364 364 420 375 227
215 210 215 214 243 232 223 225 217 215 205 199 234 243 251 248 270 287 302 374 394 372 350 373 333 327 312 338 342 403 285 274 279 270 267 285 309 310 317 356 369 366 369 363
204 212 210 250 220 221 217 213 210 215 200 226 226 240 249 248 249 265 286 294 308 401 381 359 367 342 333 325 325 379 287 274 276 277 268 277 298 305 309 340 355 356 359 378
207 210 206 243 233 220 212 206 215 210 206 227 226 231 268 246 243 251 262 278 290 297 364 397 366 367 346 322 340 378 291 274 277 279 271 268 302 285 293 309 357 353 371 351
204 170 242 236 231 214 208 205 205 203 204 209 222 239 261 277 238 239 252 260 280 280 293 335 405 385 375 345 334 356 292 280 275 277 274 269 291 299 292 293 294 360 369 345
204 217 201 194 224 209 206 196 200 201 199 214 227 221 251 259 262 237 243 255 279 279 279 298 329 421 394 382 347 332 369 291 275 274 276 272 279 307 295 285 290 326 344 374
200 233 240 229 220 209 205 197 210 201 204 207 206 228 242 245 256 232 231 246 256 277 277 292 301 388 429 407 383 347 325 355 284 279 281 270 268 298 273 294 291 292 296 343
195 202 209 209 222 215 204 198 199 195 204 200 211 225 230 239 246 237 227 237 248 257 277 279 290 304 468 438 409 389 350 339 332 279 280 281 267 268 304 291 277 296 279 289
248 241 185 230 225 221 210 201 199 200 199 202 204 219 222 241 237 249 239 228 240 249 264 275 283 293 318 470 435 406 392 344 349 308 280 284 272 276 278 317 268 266 292 281
200 236 186 234 229 223 217 210 196 198 198 204 204 209 224 238 237 245 250 231 227 245 266 272 276 287 303 375 469 432 404 390 330 353 277 278 281 272 276 284 305 333 281 255
194 161 184 238 232 227 222 213 209 197 200 200 209 211 223 234 238 236 247 235 228 233 251 265 274 281 290 310 480 457 426 404 388 361 352 285 276 286 273 273 283 296 301 305
194 188 241 242 234 229 225 220 213 203 204 207 207 209 220 227 235 235 250 237 228 228 244 271 266 276 284 296 362 473 442 413 404 386 384 355 287 277 285 273 276 285 296 241
202 188 223 195 238 233 229 223 216 212 207 203 211 210 217 224 234 229 248 244 226 226 247 245 268 272 281 289 317 484 462 428 405 398 385 385 356 289 275 280 274 279 279 296
196 209 222 234 237 232 229 224 220 213 208 208 210 208 215 224 234 230 243 252 226 225 244 244 262 266 280 288 300 339 471 451 422 407 391 376 383 387 313 277 278 277 286 282
179 223 217 238 234 232 227 224 221 215 205 203 211 211 216 225 234 231 243 245 225 224 233 240 246 270 277 285 296 316 473 456 436 420 409 388 375 378 380 387 280 281 289 286
247 248 201 239 237 232 228 224 223 214 211 206 211 213 218 226 232 231 237 243 226 225 226 239 244 254 278 281 287 305 333 461 442 420 408 404 390 376 378 382 386 285 286 296
211 250 243 237 235 233 227 224 220 216 215 213 213 216 220 230 231 233 235 239 227 219 232 230 243 243 275 283 282 300 314 461 446 425 411 399 395 391 382 381 381 386 395 289
232 186 243 237 233 232 228 223 216 216 216 215 217 221 225 233 230 232 236 256 223 220 229 229 240 268 281 284 295 291 306 330 452 429 412 394 388 385 377 378 375 380 388 391
257 246 243 237 236 230 226 221 216 216 216 216 221 224 228 235 228 233 249 229 220 216 223 234 246 268 286 287 281 295 307 316 428 440 416 403 392 376 375 369 367 373 380 387
266 255 246 239 237 227 223 220 217 218 219 222 223 232 235 232 233 247 235 221 219 222 229 236 257 285 288 284 294 298 302 313 334 444 428 406 394 378 374 362 361 364 373 372
279 269 253 240 233 226 223 220 220 225 226 227 235 237 233 234 236 230 225 221 218 212 238 245 243 253 287 284 290 289 297 312 325 443 431 417 398 385 374 361 356 361 364 367
276 257 245 236 232 226 227 227 228 232 234 241 231 235 234 229 223 224 223 219 218 229 242 243 247 259 243 289 294 296 303 312 326 400 431 418 406 391 372 365 353 355 356 365
281 269 258 249 245 244 241 240 242 244 233 230 226 226 225 222 221 218 218 234 253 262 256 245 260 260 289 291 295 288 296 314 316 340 432 416 405 394 382 370 354 350 352 354
221 232 236 227 227 227 233 228 221 224 231 231 223 224 230 228 226 216 230 242 243 236 238 238 248 249 268 280 289 292 300 309 312 321 437 417 405 394 385 371 362 351 349 350
213 220 217 223 219 217 216 217 219 216 215 227 232 236 237 231 227 233 230 249 252 251 256 236 244 248 262 275 293 283 295 303 319 323 441 420 403 395 385 378 363 356 347 347
217 214 217 214 210 211 206 200 207 218 218 218 213 210 213 243 243 247 227 245 241 246 253 255 246 242 260 275 274 300 304 304 313 337 443 421 405 394 383 375 369 358 352 347
196 217 207 205 209 209 204 210 212 201 208 211 222 223 208 209 226 236 233 247 246 237 247 261 250 245 252 267 263 275 299 304 313 323 439 422 405 392 385 375 367 363 355 346